Regional Weather Roundup
Issued by NWS

Home | Current Version | Previous Version | Text Only | Print | Product List | Glossary On
Versions: 1 2 3 4 5 6 7 8 9 10 11 12 13 14 15 16 17 18 19 20 21 22 23 24 25 26 27 28 29 30 31 32 33 34 35 36 37 38 39 40 41 42 43 44 45 46 47 48 49 50
000
ASUS43 KIND 242109
RWRIN

WEATHER ROUNDUP FOR INDIANA
NATIONAL WEATHER SERVICE INDIANAPOLIS IN
500 PM EDT MON APR 24 2017

NOTE: "FAIR" INDICATES FEW OR NO CLOUDS BELOW 12,000 FEET WITH NO
SIGNIFICANT WEATHER AND/OR OBSTRUCTIONS TO VISIBILITY.

* - STATION DOES NOT REPORT WEATHER SUCH AS PRECIPITATION OR FOG.

+ - STATION NOT QUALITY CONTROLLED BY THE NATIONAL WEATHER SERVICE.
    USE DATA WITH CAUTION...ESPECIALLY DEWPOINT AND RELATIVE
    HUMIDITY OBSERVATIONS.

INZ001>003-010>013-019-020-242200-
NORTHWEST INDIANA

CITY           SKY/WX    TMP DP  RH WIND       PRES   REMARKS
GARY /AIRPORT/ PTSUNNY   66  32  28 E12       29.87F
KNOX *+        SUNNY    N/A N/A N/A E13       29.86F
LA PORTE +     SUNNY     74  32  21 E12G20    29.87F
MICHIGAN CITY+ SUNNY     73  32  21 SE8       29.86F
MONTICELLO +   SUNNY     73  30  20 E8        29.84F
RENSSELAER +   SUNNY     75  19  12 E14G20    29.83F
VALPARAISO     SUNNY     76  29  17 SE9       29.85F

$$

LMZ046-743>745-242200-
SOUTHERN LAKE MICHIGAN

STATION/POSITION TIME  TEMP    WIND        PRES    WAVE
                       AIR SEA DIR/SP/G            HT
                 (UTC) (F)     (DEG/KT/KT) (MB)    (FT)
BURNS HARBOR     2040   56      80/  6/ 10 1011.9F
MICHIGAN CITY    2040   54      20/ 12/ 15   N/A

$$

INZ004-005-014>016-021>024-242200-
NORTH CENTRAL INDIANA

CITY           SKY/WX    TMP DP  RH WIND       PRES   REMARKS
ELKHART        SUNNY     72  30  21 SE14      29.88F
GOSHEN         SUNNY     71  35  26 E16G23    29.88F
LOGANSPORT +   SUNNY     72  37  28 E12       29.85F
PERU/GRISSOM   SUNNY     73  36  25 NE17      29.84F
ROCHESTER +    SUNNY     73  32  21 E20       29.86F
SOUTH BEND     MOSUNNY   72  34  24 E13       29.88F
WARSAW +       SUNNY     70  36  28 SE12G18   29.88F

$$

INZ006>009-017-018-025>027-242200-
NORTHEAST INDIANA

CITY           SKY/WX    TMP DP  RH WIND       PRES   REMARKS
ANGOLA *+      SUNNY     70  36  28 E13       29.91F
AUBURN +       SUNNY     70  34  26 NE16G22   29.90F
FORT WAYNE     PTSUNNY   72  36  26 E17G24    29.88F
HUNTINGTON +   SUNNY     72  32  23 NE13      29.87F
KENDALLVILLE + SUNNY     69  35  27 SE16G24   29.91F

$$

INZ028-029-035-036-043>045-051>053-242200-
WEST CENTRAL INDIANA

CITY           SKY/WX    TMP DP  RH WIND       PRES   REMARKS
CRAWFORDSVL +  CLOUDY    73  36  25 E15       29.83F
GREENCASTLE +  CLOUDY    73  37  27 E9        29.81F
LAFAYETTE      NOT AVBL
TERRE HAUTE    SUNNY     76  36  23 E10       29.80F

$$

INZ030>032-037>040-046>048-054>057-064-065-242200-
CENTRAL INDIANA

CITY           SKY/WX    TMP DP  RH WIND       PRES   REMARKS
CP ATTERBURY + SUNNY     73  50  43 E14       29.81F
COLUMBUS       MOSUNNY   73  41  31 E14       29.80F
FISHERS *+     SUNNY     75  46  35 E6G17     29.82F
FRANKFORT +    MOSUNNY   79  32  18 E12G24    29.85F
GREENWOOD *+   SUNNY     75  40  28 E10       29.82F
INDIANAPOLIS   PTSUNNY   75  40  28 E16       29.81F
-EAGLE CREEK   SUNNY     75  38  26 E9        29.81F
KOKOMO +       SUNNY     73  37  27 E16       29.85F
MARION +       SUNNY     73  36  25 E13G21    29.85F
MT COMFORT *+  MOSUNNY   75  45  33 E16       29.82F
SHELBYVILLE    SUNNY     78  44  29 E16       29.80F
ZIONSVILLE +   SUNNY     73  36  26 E9        29.83F

$$

INZ033-034-041-042-049-050-058-059-242200-
EAST CENTRAL INDIANA

CITY           SKY/WX    TMP DP  RH WIND       PRES   REMARKS
MUNCIE         SUNNY     77  32  19 NE16      29.83F
RICHMOND +     MOSUNNY   73  46  38 E13G22    29.83F

$$

INZ060-061-067>069-081>083-085>088-242200-
SOUTHWEST INDIANA

CITY           SKY/WX    TMP DP  RH WIND       PRES   REMARKS
EVANSVILLE     SUNNY     77  44  30 NE6       29.79F
HUNTINGBURG *+ SUNNY     76  50  40 NE9       29.78F
WASHINGTON +   SUNNY    N/A N/A N/A CALM      29.78F

$$

INZ062-063-066-070>080-084-089>092-242200-
SOUTH CENTRAL AND SOUTHEAST INDIANA

CITY           SKY/WX    TMP DP  RH WIND       PRES   REMARKS
BEDFORD +      SUNNY    N/A N/A N/A E7        29.79F
BLOOMINGTON    SUNNY     76  41  28 NE12      29.80F
MADISON *+     SUNNY     73  46  38 NE8       29.80F
NORTH VERNON + SUNNY     75  48  38 E12G17    29.80F
SEYMOUR +      SUNNY     77  48  36 NE10      29.78F

$$





USA.gov is the U.S. government's official web portal to all federal, state and local government web resources and services.